DLH9EE EDDF-LIMC

Flight info

Callsign DLH9EE
Flight time 1h 27m
Altitude 33000
Route ANEKI2L/18 ANEKI Y163 NATOR DCT DITON DCT BASGO Z424 RIXUV
Aircraft A321/M-SDE2E3FGIJ1LORWXYZ/HB1

Departure

Time 2026-05-05 19:59
Airport Frankfurt Main Airport (EDDF)

Arrival

Time 2026-05-05 21:26
Airport Milan Malpensa International Airport (LIMC)
Time Latitude Longitude Altitude Speed Heading
2026-05-05 19:42 50.04418 8.56275 356 ft 0 kts 162°
2026-05-05 19:47 50.04418 8.56274 356 ft 1 kts 162°
2026-05-05 19:47 50.04440 8.56263 361 ft 4 kts 162°
2026-05-05 19:48 50.04463 8.56253 360 ft 3 kts 167°
2026-05-05 19:48 50.04484 8.56252 358 ft 4 kts 225°
2026-05-05 19:48 50.04494 8.56285 364 ft 4 kts 253°
2026-05-05 19:48 50.04502 8.56322 361 ft 4 kts 249°
2026-05-05 19:49 50.04511 8.56362 362 ft 4 kts 250°
2026-05-05 19:49 50.04515 8.56379 360 ft 0 kts 250°
2026-05-05 19:53 50.04508 8.56348 362 ft 7 kts 250°
2026-05-05 19:53 50.04479 8.56227 362 ft 16 kts 250°
2026-05-05 19:53 50.04441 8.56070 363 ft 14 kts 243°
2026-05-05 19:54 50.04368 8.56040 364 ft 7 kts 162°
2026-05-05 19:54 50.04348 8.56050 360 ft 2 kts 162°
2026-05-05 19:54 50.04306 8.56066 358 ft 9 kts 178°
2026-05-05 19:54 50.04253 8.55993 360 ft 13 kts 247°
2026-05-05 19:55 50.04203 8.55783 359 ft 28 kts 250°
2026-05-05 19:55 50.04133 8.55489 354 ft 28 kts 249°
2026-05-05 19:55 50.04063 8.55201 357 ft 28 kts 250°
2026-05-05 19:55 50.03993 8.54908 358 ft 29 kts 250°
2026-05-05 19:56 50.03925 8.54616 350 ft 28 kts 250°
2026-05-05 19:56 50.03843 8.54329 351 ft 27 kts 237°
2026-05-05 19:56 50.03763 8.54065 352 ft 28 kts 249°
2026-05-05 19:56 50.03692 8.53771 352 ft 30 kts 249°
2026-05-05 19:57 50.03617 8.53466 339 ft 31 kts 249°
2026-05-05 19:57 50.03567 8.53262 337 ft 31 kts 249°
2026-05-05 19:57 50.03466 8.52857 333 ft 29 kts 247°
2026-05-05 19:57 50.03404 8.52642 333 ft 16 kts 229°
2026-05-05 19:58 50.03321 8.52594 334 ft 13 kts 181°
2026-05-05 19:58 50.03193 8.52595 336 ft 41 kts 179°
2026-05-05 19:58 50.02626 8.52601 333 ft 119 kts 179°
2026-05-05 19:58 50.01599 8.52595 511 ft 159 kts 182°
2026-05-05 19:59 50.00521 8.52552 1386 ft 155 kts 182°
2026-05-05 19:59 49.99412 8.52590 1972 ft 165 kts 180°
2026-05-05 19:59 49.98200 8.52675 2358 ft 184 kts 179°
2026-05-05 19:59 49.96832 8.52796 2652 ft 207 kts 179°
2026-05-05 20:00 49.95345 8.52928 3029 ft 224 kts 179°
2026-05-05 20:00 49.93768 8.53063 3726 ft 230 kts 179°
2026-05-05 20:00 49.92178 8.53191 4472 ft 229 kts 180°
2026-05-05 20:00 49.90582 8.53311 5337 ft 231 kts 180°
2026-05-05 20:01 49.88964 8.53428 6177 ft 234 kts 180°
2026-05-05 20:01 49.87322 8.53542 6974 ft 237 kts 180°
2026-05-05 20:01 49.85658 8.53659 7790 ft 240 kts 180°
2026-05-05 20:01 49.83981 8.53775 8593 ft 243 kts 180°
2026-05-05 20:02 49.82304 8.53885 9398 ft 246 kts 180°
2026-05-05 20:02 49.80581 8.53996 10150 ft 249 kts 180°
2026-05-05 20:02 49.78841 8.54108 10880 ft 252 kts 180°
2026-05-05 20:02 49.77067 8.54019 11432 ft 263 kts 187°
2026-05-05 20:03 49.75160 8.53763 11675 ft 286 kts 187°
2026-05-05 20:03 49.73094 8.53484 11884 ft 310 kts 187°
2026-05-05 20:03 49.71637 8.53285 11990 ft 325 kts 187°
2026-05-05 20:03 49.69307 8.52969 12124 ft 347 kts 186°
2026-05-05 20:04 49.66833 8.52639 12313 ft 365 kts 186°
2026-05-05 20:04 49.64276 8.52304 12832 ft 371 kts 187°
2026-05-05 20:04 49.61688 8.51966 13496 ft 374 kts 187°
2026-05-05 20:04 49.59079 8.51624 14083 ft 378 kts 186°
2026-05-05 20:05 49.56447 8.51278 14662 ft 381 kts 186°
2026-05-05 20:05 49.53794 8.50930 15226 ft 384 kts 186°
2026-05-05 20:05 49.51115 8.50579 15793 ft 388 kts 186°
2026-05-05 20:05 49.48410 8.50227 16329 ft 391 kts 186°
2026-05-05 20:06 49.45682 8.49874 16855 ft 395 kts 186°
2026-05-05 20:06 49.42926 8.49516 17379 ft 398 kts 186°
2026-05-05 20:06 49.40154 8.49156 17992 ft 399 kts 186°
2026-05-05 20:06 49.37411 8.48803 18460 ft 402 kts 186°
2026-05-05 20:07 49.34609 8.48438 18919 ft 404 kts 185°
2026-05-05 20:07 49.31802 8.48071 19383 ft 407 kts 185°
2026-05-05 20:07 49.28967 8.47701 19859 ft 409 kts 185°
2026-05-05 20:07 49.26120 8.47329 20328 ft 412 kts 185°
2026-05-05 20:08 49.23253 8.46954 20790 ft 415 kts 185°
2026-05-05 20:08 49.20374 8.46576 21252 ft 417 kts 185°
2026-05-05 20:08 49.17481 8.46195 21758 ft 418 kts 185°
2026-05-05 20:08 49.14577 8.45816 22212 ft 420 kts 185°
2026-05-05 20:09 49.11654 8.45437 22653 ft 423 kts 185°
2026-05-05 20:09 49.08702 8.45058 23090 ft 425 kts 185°
2026-05-05 20:09 49.05768 8.44544 23488 ft 428 kts 190°
2026-05-05 20:09 49.02846 8.43559 23849 ft 431 kts 192°
2026-05-05 20:10 48.99916 8.42540 24229 ft 433 kts 192°
2026-05-05 20:10 48.96976 8.41513 24642 ft 434 kts 192°
2026-05-05 20:10 48.94029 8.40483 25040 ft 435 kts 192°
2026-05-05 20:10 48.91071 8.39452 25408 ft 437 kts 192°
2026-05-05 20:11 48.88097 8.38418 25756 ft 439 kts 192°
2026-05-05 20:11 48.85110 8.37381 26096 ft 441 kts 192°
2026-05-05 20:11 48.82111 8.36342 26418 ft 443 kts 192°
2026-05-05 20:11 48.79098 8.35300 26725 ft 445 kts 192°
2026-05-05 20:12 48.76075 8.34239 27046 ft 446 kts 193°
2026-05-05 20:12 48.73062 8.33146 27363 ft 446 kts 193°
2026-05-05 20:12 48.70054 8.32032 27740 ft 445 kts 194°
2026-05-05 20:12 48.67056 8.30917 28133 ft 443 kts 194°
2026-05-05 20:13 48.64060 8.29808 28522 ft 442 kts 194°
2026-05-05 20:13 48.61076 8.28715 28910 ft 441 kts 194°
2026-05-05 20:13 48.58094 8.27632 29323 ft 440 kts 193°
2026-05-05 20:13 48.55122 8.26558 29726 ft 439 kts 193°
2026-05-05 20:14 48.52148 8.25506 30109 ft 438 kts 191°
2026-05-05 20:14 48.49129 8.24954 30427 ft 438 kts 183°
2026-05-05 20:14 48.46082 8.25128 30739 ft 439 kts 174°
2026-05-05 20:14 48.43066 8.25854 31063 ft 439 kts 172°
2026-05-05 20:15 48.40014 8.26610 31394 ft 438 kts 172°
2026-05-05 20:15 48.37007 8.27337 31716 ft 438 kts 172°
2026-05-05 20:15 48.34003 8.28056 32034 ft 437 kts 173°
2026-05-05 20:15 48.30999 8.28774 32340 ft 437 kts 173°
2026-05-05 20:16 48.28002 8.29493 32652 ft 436 kts 172°
2026-05-05 20:16 48.25007 8.30214 32847 ft 437 kts 172°
2026-05-05 20:16 48.22010 8.30936 32881 ft 436 kts 172°
2026-05-05 20:17 48.16019 8.32160 32885 ft 433 kts 179°
2026-05-05 20:17 48.09987 8.32245 32881 ft 433 kts 181°
2026-05-05 20:18 48.03957 8.32318 32885 ft 433 kts 181°
2026-05-05 20:18 47.97922 8.32405 32893 ft 434 kts 181°
2026-05-05 20:19 47.91887 8.32502 32902 ft 434 kts 181°
2026-05-05 20:19 47.85851 8.32586 32908 ft 433 kts 181°
2026-05-05 20:20 47.79823 8.32664 32914 ft 433 kts 181°
2026-05-05 20:20 47.73794 8.32736 32917 ft 433 kts 181°
2026-05-05 20:21 47.67764 8.32812 32919 ft 433 kts 182°
2026-05-05 20:21 47.61742 8.32901 32930 ft 432 kts 182°
2026-05-05 20:22 47.55737 8.32994 32936 ft 432 kts 182°
2026-05-05 20:22 47.49734 8.33081 32926 ft 431 kts 182°
2026-05-05 20:23 47.43749 8.33164 32931 ft 430 kts 182°
2026-05-05 20:23 47.37775 8.33246 32919 ft 429 kts 183°
2026-05-05 20:24 47.31813 8.33327 32935 ft 428 kts 183°
2026-05-05 20:24 47.25861 8.33696 32936 ft 429 kts 179°
2026-05-05 20:25 47.19925 8.34599 32949 ft 429 kts 178°
2026-05-05 20:25 47.13998 8.35571 32947 ft 428 kts 178°
2026-05-05 20:26 47.08068 8.36424 32934 ft 428 kts 179°
2026-05-05 20:26 47.02153 8.37209 32970 ft 426 kts 179°
2026-05-05 20:27 46.96257 8.37991 32974 ft 425 kts 179°
2026-05-05 20:27 46.90372 8.38785 32968 ft 424 kts 179°
2026-05-05 20:28 46.84496 8.39583 32967 ft 424 kts 180°
2026-05-05 20:28 46.78624 8.40382 32973 ft 422 kts 180°
2026-05-05 20:28 46.75749 8.40774 32941 ft 407 kts 180°
2026-05-05 20:29 46.72989 8.41158 32947 ft 390 kts 180°
2026-05-05 20:29 46.70349 8.41528 32947 ft 374 kts 180°
2026-05-05 20:29 46.67814 8.41881 32948 ft 358 kts 181°
2026-05-05 20:29 46.65385 8.42213 32877 ft 343 kts 181°
2026-05-05 20:30 46.63052 8.42523 32691 ft 332 kts 181°
2026-05-05 20:30 46.60772 8.42822 32413 ft 327 kts 181°
2026-05-05 20:30 46.58508 8.43114 32162 ft 326 kts 181°
2026-05-05 20:30 46.56249 8.43403 31907 ft 326 kts 182°
2026-05-05 20:31 46.53988 8.43694 31660 ft 326 kts 182°
2026-05-05 20:31 46.51724 8.43989 31403 ft 327 kts 181°
2026-05-05 20:31 46.49454 8.44286 30984 ft 330 kts 181°
2026-05-05 20:31 46.47151 8.44587 30324 ft 335 kts 181°
2026-05-05 20:32 46.44816 8.44895 29586 ft 339 kts 181°
2026-05-05 20:32 46.42481 8.45214 29195 ft 334 kts 180°
2026-05-05 20:32 46.40175 8.45532 28698 ft 333 kts 180°
2026-05-05 20:32 46.37868 8.45842 28136 ft 334 kts 180°
2026-05-05 20:33 46.35554 8.46145 27562 ft 335 kts 180°
2026-05-05 20:33 46.33227 8.46449 26984 ft 336 kts 180°
2026-05-05 20:33 46.30892 8.46757 26375 ft 338 kts 180°
2026-05-05 20:33 46.28545 8.47069 25767 ft 339 kts 180°
2026-05-05 20:34 46.26206 8.47385 25452 ft 333 kts 179°
2026-05-05 20:34 46.23939 8.47712 25317 ft 321 kts 179°
2026-05-05 20:34 46.21762 8.48033 25193 ft 309 kts 179°
2026-05-05 20:34 46.19668 8.48341 25048 ft 296 kts 179°
2026-05-05 20:35 46.17642 8.48640 24757 ft 290 kts 179°
2026-05-05 20:35 46.15653 8.48924 24461 ft 286 kts 179°
2026-05-05 20:35 46.13675 8.49201 24131 ft 284 kts 179°
2026-05-05 20:35 46.11720 8.49561 23769 ft 284 kts 174°
2026-05-05 20:36 46.09799 8.50239 23319 ft 285 kts 168°
2026-05-05 20:36 46.07928 8.51210 22859 ft 286 kts 165°
2026-05-05 20:36 46.06075 8.52218 22434 ft 285 kts 165°
2026-05-05 20:36 46.04224 8.53217 22038 ft 283 kts 165°
2026-05-05 20:37 46.02384 8.54207 21646 ft 281 kts 165°
2026-05-05 20:37 46.01173 8.54858 21337 ft 281 kts 165°
2026-05-05 20:37 45.98736 8.56164 20998 ft 277 kts 165°
2026-05-05 20:37 45.96918 8.57138 21003 ft 280 kts 165°
2026-05-05 20:38 45.95089 8.58118 21001 ft 281 kts 165°
2026-05-05 20:38 45.93254 8.59101 21000 ft 281 kts 165°
2026-05-05 20:38 45.91421 8.60083 21001 ft 281 kts 165°
2026-05-05 20:38 45.89637 8.61271 20997 ft 286 kts 154°
2026-05-05 20:39 45.88020 8.62978 21003 ft 291 kts 147°
2026-05-05 20:39 45.86451 8.64818 21000 ft 291 kts 147°
2026-05-05 20:39 45.84880 8.66644 21001 ft 291 kts 147°
2026-05-05 20:39 45.83307 8.68464 20960 ft 292 kts 148°
2026-05-05 20:40 45.81699 8.70314 20309 ft 300 kts 147°
2026-05-05 20:40 45.80097 8.72165 20111 ft 292 kts 147°
2026-05-05 20:40 45.78532 8.73982 19810 ft 288 kts 147°
2026-05-05 20:40 45.76979 8.75780 19464 ft 285 kts 148°
2026-05-05 20:41 45.75331 8.77277 19105 ft 278 kts 158°
2026-05-05 20:41 45.73621 8.78582 18748 ft 278 kts 158°
2026-05-05 20:41 45.71922 8.79884 18399 ft 277 kts 158°
2026-05-05 20:41 45.70798 8.80746 18148 ft 276 kts 157°
2026-05-05 20:42 45.69110 8.82044 17769 ft 275 kts 157°
2026-05-05 20:42 45.67405 8.83356 17156 ft 282 kts 157°
2026-05-05 20:42 45.65702 8.84668 16998 ft 275 kts 157°
2026-05-05 20:42 45.64021 8.85961 16996 ft 271 kts 157°
2026-05-05 20:43 45.62391 8.87215 16996 ft 264 kts 157°
2026-05-05 20:43 45.60779 8.88452 17000 ft 262 kts 157°
2026-05-05 20:43 45.59274 8.89945 17003 ft 270 kts 137°
2026-05-05 20:43 45.58320 8.92291 16999 ft 282 kts 110°
2026-05-05 20:44 45.58230 8.95115 16999 ft 292 kts 79°
2026-05-05 20:44 45.59108 8.97734 16997 ft 298 kts 48°
2026-05-05 20:44 45.60758 8.99473 16996 ft 297 kts 22°
2026-05-05 20:44 45.62651 9.00677 16997 ft 298 kts 21°
2026-05-05 20:45 45.66512 9.02730 16996 ft 292 kts 359°
2026-05-05 20:45 45.68452 9.02263 16998 ft 280 kts 328°
2026-05-05 20:45 45.69941 9.00611 16996 ft 267 kts 300°
2026-05-05 20:46 45.70708 8.98283 16994 ft 256 kts 275°
2026-05-05 20:46 45.70697 8.95801 16996 ft 248 kts 252°
2026-05-05 20:46 45.69968 8.93613 17001 ft 244 kts 229°
2026-05-05 20:46 45.68671 8.92072 17000 ft 245 kts 209°
2026-05-05 20:47 45.67138 8.91003 16997 ft 246 kts 206°
2026-05-05 20:47 45.65544 8.89990 16474 ft 255 kts 205°
2026-05-05 20:47 45.63938 8.89006 16280 ft 248 kts 205°
2026-05-05 20:47 45.62365 8.88049 16046 ft 243 kts 205°
2026-05-05 20:48 45.60759 8.87311 15999 ft 246 kts 187°
2026-05-05 20:48 45.59052 8.87675 16000 ft 256 kts 159°
2026-05-05 20:48 45.57649 8.89281 16000 ft 268 kts 128°
2026-05-05 20:48 45.57017 8.91819 16000 ft 281 kts 95°
2026-05-05 20:49 45.57464 8.94538 16000 ft 289 kts 59°
2026-05-05 20:49 45.58886 8.96526 15999 ft 289 kts 25°
2026-05-05 20:49 45.60720 8.97719 15999 ft 291 kts 21°
2026-05-05 20:49 45.62583 8.98843 16000 ft 291 kts 20°
2026-05-05 20:50 45.64450 8.99968 15999 ft 291 kts 21°
2026-05-05 20:50 45.66370 9.00775 15996 ft 285 kts 357°
2026-05-05 20:50 45.68230 9.00155 15998 ft 272 kts 323°
2026-05-05 20:50 45.69512 8.98307 15999 ft 258 kts 291°
2026-05-05 20:51 45.69934 8.95898 15999 ft 248 kts 263°
2026-05-05 20:51 45.69479 8.93578 15999 ft 242 kts 236°
2026-05-05 20:51 45.68315 8.91873 16000 ft 242 kts 210°
2026-05-05 20:51 45.66791 8.90829 16002 ft 244 kts 205°
2026-05-05 20:52 45.65232 8.89854 16001 ft 245 kts 205°
2026-05-05 20:52 45.63666 8.88890 16000 ft 245 kts 205°
2026-05-05 20:52 45.62102 8.87920 15998 ft 245 kts 205°
2026-05-05 20:52 45.60463 8.87287 15999 ft 248 kts 184°
2026-05-05 20:53 45.58769 8.87831 16002 ft 257 kts 155°
2026-05-05 20:53 45.57437 8.89586 16002 ft 270 kts 124°
2026-05-05 20:53 45.56916 8.92187 15999 ft 282 kts 91°
2026-05-05 20:53 45.57474 8.94875 15998 ft 289 kts 56°
2026-05-05 20:54 45.58962 8.96760 15916 ft 288 kts 25°
2026-05-05 20:54 45.60786 8.97939 15655 ft 288 kts 21°
2026-05-05 20:54 45.62629 8.99057 15408 ft 287 kts 21°
2026-05-05 20:54 45.64463 9.00167 15160 ft 285 kts 21°
2026-05-05 20:55 45.66334 9.00990 14912 ft 278 kts 359°
2026-05-05 20:55 45.68161 9.00473 14666 ft 265 kts 326°
2026-05-05 20:55 45.69479 8.98764 14430 ft 253 kts 296°
2026-05-05 20:55 45.70021 8.96449 14189 ft 244 kts 269°
2026-05-05 20:56 45.69732 8.94105 13951 ft 239 kts 243°
2026-05-05 20:56 45.68724 8.92250 13708 ft 239 kts 217°
2026-05-05 20:56 45.67264 8.91117 13439 ft 240 kts 206°
2026-05-05 20:56 45.65734 8.90140 13172 ft 241 kts 205°
2026-05-05 20:57 45.64203 8.89193 13014 ft 240 kts 205°
2026-05-05 20:57 45.62671 8.88249 12999 ft 240 kts 205°
2026-05-05 20:57 45.61111 8.87396 12998 ft 242 kts 192°
2026-05-05 20:57 45.59433 8.87504 13001 ft 247 kts 164°
2026-05-05 20:58 45.57972 8.88821 13002 ft 255 kts 134°
2026-05-05 20:58 45.57161 8.91086 13001 ft 264 kts 102°
2026-05-05 20:58 45.57313 8.93693 12999 ft 269 kts 68°
2026-05-05 20:58 45.58432 8.95800 12999 ft 270 kts 33°
2026-05-05 20:59 45.60108 8.96996 12897 ft 272 kts 21°
2026-05-05 20:59 45.61833 8.98066 12639 ft 270 kts 22°
2026-05-05 20:59 45.63548 8.99137 12380 ft 268 kts 22°
2026-05-05 20:59 45.65257 9.00195 12124 ft 267 kts 18°
2026-05-05 21:00 45.67050 9.00507 11866 ft 258 kts 346°
2026-05-05 21:00 45.68644 8.99490 11615 ft 249 kts 315°
2026-05-05 21:00 45.69624 8.97529 11360 ft 241 kts 285°
2026-05-05 21:00 45.69799 8.95199 11117 ft 235 kts 257°
2026-05-05 21:01 45.69190 8.93078 10872 ft 231 kts 231°
2026-05-05 21:01 45.67969 8.91619 10627 ft 231 kts 206°
2026-05-05 21:01 45.66508 8.90647 10384 ft 232 kts 204°
2026-05-05 21:01 45.65032 8.89722 10144 ft 231 kts 204°
2026-05-05 21:02 45.63560 8.88811 10015 ft 231 kts 204°
2026-05-05 21:02 45.62083 8.87896 10000 ft 232 kts 204°
2026-05-05 21:02 45.60530 8.87326 10000 ft 233 kts 180°
2026-05-05 21:02 45.58966 8.87912 10001 ft 238 kts 151°
2026-05-05 21:03 45.57807 8.89593 10003 ft 244 kts 120°
2026-05-05 21:03 45.57431 8.91953 10002 ft 250 kts 86°
2026-05-05 21:03 45.58012 8.94285 9945 ft 254 kts 53°
2026-05-05 21:03 45.59385 8.95816 9680 ft 253 kts 22°
2026-05-05 21:04 45.61008 8.96801 9415 ft 254 kts 22°
2026-05-05 21:04 45.62625 8.97798 9154 ft 253 kts 23°
2026-05-05 21:04 45.64230 8.98805 8893 ft 251 kts 23°
2026-05-05 21:04 45.65856 8.99683 8631 ft 249 kts
2026-05-05 21:05 45.67536 8.99479 8374 ft 243 kts 335°
2026-05-05 21:05 45.68853 8.98061 8118 ft 237 kts 302°
2026-05-05 21:05 45.69437 8.95931 7987 ft 229 kts 272°
2026-05-05 21:05 45.69218 8.93702 8000 ft 228 kts 244°
2026-05-05 21:06 45.68268 8.91929 8004 ft 226 kts 215°
2026-05-05 21:06 45.66878 8.90885 7998 ft 227 kts 204°
2026-05-05 21:06 45.65431 8.89973 7999 ft 227 kts 203°
2026-05-05 21:06 45.63980 8.89073 7910 ft 226 kts 203°
2026-05-05 21:07 45.62535 8.88204 7573 ft 225 kts 198°
2026-05-05 21:07 45.60995 8.87934 7242 ft 224 kts 175°
2026-05-05 21:07 45.59483 8.88477 6906 ft 224 kts 166°
2026-05-05 21:07 45.57961 8.88964 6571 ft 224 kts 170°
2026-05-05 21:08 45.56433 8.89345 6250 ft 223 kts 171°
2026-05-05 21:08 45.54913 8.89707 6027 ft 219 kts 171°
2026-05-05 21:08 45.53404 8.90071 6022 ft 217 kts 171°
2026-05-05 21:08 45.51936 8.90438 6009 ft 213 kts 171°
2026-05-05 21:09 45.50480 8.90814 6006 ft 212 kts 170°
2026-05-05 21:09 45.49031 8.91196 6006 ft 212 kts 170°
2026-05-05 21:09 45.47579 8.91583 6005 ft 212 kts 170°
2026-05-05 21:09 45.46129 8.91971 6006 ft 212 kts 170°
2026-05-05 21:10 45.44679 8.92363 6002 ft 212 kts 170°
2026-05-05 21:10 45.43229 8.92754 6003 ft 212 kts 170°
2026-05-05 21:10 45.41778 8.93144 6003 ft 212 kts 170°
2026-05-05 21:10 45.40333 8.93531 6003 ft 211 kts 170°
2026-05-05 21:11 45.38890 8.93920 6004 ft 211 kts 170°
2026-05-05 21:11 45.37447 8.94311 5999 ft 210 kts 171°
2026-05-05 21:11 45.36014 8.94701 6001 ft 209 kts 171°
2026-05-05 21:11 45.34583 8.95089 6002 ft 209 kts 171°
2026-05-05 21:12 45.33156 8.95477 6001 ft 209 kts 171°
2026-05-05 21:12 45.31727 8.95865 6001 ft 209 kts 171°
2026-05-05 21:12 45.30297 8.96252 6001 ft 209 kts 171°
2026-05-05 21:12 45.28868 8.96639 6001 ft 209 kts 171°
2026-05-05 21:13 45.27438 8.97023 5987 ft 209 kts 171°
2026-05-05 21:13 45.26011 8.97410 5985 ft 209 kts 171°
2026-05-05 21:13 45.24578 8.97799 5982 ft 209 kts 171°
2026-05-05 21:13 45.23168 8.98184 5983 ft 210 kts 171°
2026-05-05 21:14 45.21737 8.98575 5985 ft 210 kts 171°
2026-05-05 21:14 45.20304 8.98959 5983 ft 209 kts 171°
2026-05-05 21:14 45.18873 8.99340 5982 ft 209 kts 171°
2026-05-05 21:14 45.17444 8.99717 5983 ft 209 kts 173°
2026-05-05 21:15 45.16040 8.99564 5733 ft 203 kts 203°
2026-05-05 21:15 45.14988 8.98284 5347 ft 204 kts 238°
2026-05-05 21:15 45.14616 8.96349 4960 ft 207 kts 263°
2026-05-05 21:15 45.14947 8.94358 4578 ft 214 kts 299°
2026-05-05 21:16 45.16047 8.92945 4198 ft 218 kts 328°
2026-05-05 21:16 45.17402 8.91983 3981 ft 218 kts 333°
2026-05-05 21:16 45.18788 8.91074 3984 ft 220 kts 334°
2026-05-05 21:16 45.20184 8.90165 3984 ft 221 kts 334°
2026-05-05 21:17 45.21580 8.89257 3983 ft 221 kts 334°
2026-05-05 21:17 45.22974 8.88346 3989 ft 220 kts 334°
2026-05-05 21:17 45.24355 8.87417 3985 ft 219 kts 334°
2026-05-05 21:17 45.25724 8.86482 4003 ft 219 kts 334°
2026-05-05 21:18 45.27096 8.85546 4004 ft 218 kts 334°
2026-05-05 21:18 45.28465 8.84612 4005 ft 218 kts 334°
2026-05-05 21:18 45.29798 8.83701 3996 ft 204 kts 334°
2026-05-05 21:18 45.31030 8.82862 3996 ft 190 kts 333°
2026-05-05 21:19 45.32217 8.82087 4004 ft 188 kts 339°
2026-05-05 21:19 45.33465 8.81546 4008 ft 188 kts 346°
2026-05-05 21:19 45.34739 8.81140 4009 ft 188 kts 348°
2026-05-05 21:19 45.36018 8.80775 4010 ft 188 kts 349°
2026-05-05 21:20 45.37299 8.80421 4009 ft 188 kts 349°
2026-05-05 21:20 45.38580 8.80069 4009 ft 188 kts 349°
2026-05-05 21:20 45.39861 8.79718 4008 ft 188 kts 349°
2026-05-05 21:20 45.41146 8.79367 4008 ft 188 kts 349°
2026-05-05 21:21 45.42427 8.79015 4006 ft 188 kts 349°
2026-05-05 21:21 45.43711 8.78663 4007 ft 188 kts 349°
2026-05-05 21:21 45.44993 8.78312 3964 ft 188 kts 349°
2026-05-05 21:21 45.46271 8.77961 3797 ft 186 kts 349°
2026-05-05 21:22 45.47536 8.77614 3553 ft 185 kts 349°
2026-05-05 21:22 45.48795 8.77268 3315 ft 184 kts 349°
2026-05-05 21:22 45.50047 8.76924 3068 ft 183 kts 350°
2026-05-05 21:22 45.51297 8.76581 2819 ft 183 kts 350°
2026-05-05 21:23 45.52545 8.76238 2574 ft 183 kts 350°
2026-05-05 21:23 45.53787 8.75896 2345 ft 182 kts 350°
2026-05-05 21:23 45.54997 8.75562 2094 ft 169 kts 350°
2026-05-05 21:23 45.56092 8.75260 1864 ft 153 kts 351°
2026-05-05 21:24 45.56771 8.75073 1731 ft 148 kts 351°
2026-05-05 21:24 45.57759 8.74801 1522 ft 142 kts 351°
2026-05-05 21:24 45.58713 8.74539 1326 ft 138 kts 349°
2026-05-05 21:24 45.59643 8.74280 1140 ft 135 kts 349°
2026-05-05 21:25 45.60563 8.74033 955 ft 133 kts 349°
2026-05-05 21:25 45.61471 8.73774 816 ft 134 kts 349°
2026-05-05 21:25 45.62360 8.73537 743 ft 111 kts 349°
2026-05-05 21:25 45.62868 8.73388 739 ft 56 kts 348°
2026-05-05 21:26 45.63113 8.73277 738 ft 28 kts 327°
2026-05-05 21:26 45.63246 8.73099 740 ft 21 kts 307°
2026-05-05 21:26 45.63299 8.72987 740 ft 12 kts 303°
2026-05-05 21:26 45.63349 8.72878 741 ft 14 kts 303°
2026-05-05 21:27 45.63402 8.72744 741 ft 17 kts 289°
2026-05-05 21:27 45.63399 8.72568 741 ft 19 kts 260°
2026-05-05 21:27 45.63373 8.72371 739 ft 21 kts 259°
2026-05-05 21:27 45.63350 8.72204 742 ft 8 kts 258°
2026-05-05 21:28 45.63342 8.72143 741 ft 1 kts 258°
2026-05-05 21:28 45.63340 8.72126 742 ft 3 kts 258°
2026-05-05 21:28 45.63333 8.72081 742 ft 6 kts 258°
2026-05-05 21:28 45.63303 8.72018 741 ft 10 kts 211°
2026-05-05 21:29 45.63230 8.71987 741 ft 13 kts 182°
2026-05-05 21:29 45.63135 8.72006 740 ft 15 kts 169°
2026-05-05 21:29 45.63025 8.72039 741 ft 17 kts 168°
2026-05-05 21:29 45.62901 8.72073 740 ft 16 kts 169°
2026-05-05 21:30 45.62822 8.72095 741 ft 11 kts 169°
2026-05-05 21:30 45.62748 8.72116 741 ft 5 kts 169°
2026-05-05 21:30 45.62727 8.72120 741 ft 4 kts 179°
2026-05-05 21:30 45.62696 8.72100 739 ft 6 kts 219°
2026-05-05 21:31 45.62677 8.72034 741 ft 9 kts 256°
2026-05-05 21:31 45.62665 8.71943 741 ft 9 kts 259°
2026-05-05 21:31 45.62658 8.71893 741 ft 3 kts 259°
2026-05-05 21:31 45.62650 8.71828 741 ft 11 kts 259°
2026-05-05 21:32 45.62634 8.71706 741 ft 14 kts 259°
2026-05-05 21:32 45.62590 8.71663 741 ft 8 kts 172°
2026-05-05 21:32 45.62560 8.71670 740 ft 3 kts 169°
2026-05-05 21:32 45.62555 8.71671 740 ft 0 kts 169°